Weather History for Tampa, FL

Change the Weather History Date:

Sunday, November 27, 2011

  Actual Average Record
Temperature  
Mean Temperature 73 °F 67 °F  
Max Temperature 81 °F 76 °F 86 °F (1990)
Min Temperature 64 °F 58 °F 35 °F (1903)
Degree Days  
Heating Degree Days 0 2  
Month to date heating degree days 9 34  
Since 1 July heating degree days 10 38  
Cooling Degree Days 8 4  
Month to date cooling degree days 176 153  
Year to date cooling degree days 3866 3519  
Growing Degree Days 22 (Base 50)    
Moisture  
Dew Point 57 °F    
Average Humidity 60    
Maximum Humidity 78    
Minimum Humidity 42    
Precipitation  
Precipitation 0.00 in 0.06 in 1.28 in (1893)
Month to date precipitation 0.80 1.35  
Year to date precipitation 52.59 43.63  
Sea Level Pressure  
Sea Level Pressure 30.05 in    
Wind  
Wind Speed 5 mph (ESE)    
Max Wind Speed 17 mph    
Max Gust Speed 26 mph    
Visibility 10 miles    
Events      
T = Trace of Precipitation, MM = Missing Value Source: NWS Daily Summary

Daily Weather History Graph

Daily Weather History Graph

Search for Another Location

Airport:

Trip Planner

Search our weather history database for the weather conditions in past years. The results will help you decide how hot, cold, wet, or windy it might be!

Date:

Astronomy

Nov. 27, 2011 Rise Set
Actual Time 7:00 AM EST 5:34 PM EST
Civil Twilight 6:35 AM EST 5:59 PM EST
Nautical Twilight 6:06 AM EST 6:28 PM EST
Astronomical Twilight 5:38 AM EST 6:56 PM EST
Moon 9:22 AM EST 8:12 PM EST
Length of Visible Light 11h 24m
Length of Day
10h 33m
Waxing Crescent, 8% of the Moon is Illuminated
Nov 27
Waxing Crescent
Dec 2
First Quarter
Dec 10
Full
Dec 17
Last Quarter
Dec 24
New

Hourly Weather History & Observations

Time (EST) Temp. Heat Index Dew Point Humidity Pressure Visibility Wind Dir Wind Speed Gust Speed Precip Events Conditions
12:53 AM 68.0 °F - 55.0 °F 63% 30.13 in 10.0 mi ESE 3.5 mph - N/A   Clear
1:53 AM 66.9 °F - 55.9 °F 68% 30.12 in 10.0 mi ESE 4.6 mph - N/A   Scattered Clouds
2:53 AM 68.0 °F - 55.9 °F 65% 30.10 in 10.0 mi Calm Calm - N/A   Scattered Clouds
3:53 AM 66.0 °F - 55.9 °F 70% 30.09 in 10.0 mi East 3.5 mph - N/A   Partly Cloudy
4:53 AM 64.9 °F - 55.9 °F 73% 30.09 in 10.0 mi East 5.8 mph - N/A   Scattered Clouds
5:53 AM 64.9 °F - 55.0 °F 70% 30.09 in 10.0 mi ENE 3.5 mph - N/A   Partly Cloudy
6:53 AM 64.9 °F - 55.9 °F 73% 30.10 in 10.0 mi East 3.5 mph - N/A   Partly Cloudy
7:53 AM 66.0 °F - 57.9 °F 75% 30.10 in 10.0 mi Calm Calm - N/A   Partly Cloudy
8:53 AM 72.0 °F - 57.9 °F 61% 30.10 in 10.0 mi ESE 10.4 mph 16.1 mph N/A   Partly Cloudy
9:53 AM 75.2 °F - 57.2 °F 53% 30.10 in 10.0 mi ESE 8.1 mph - N/A   Partly Cloudy
10:53 AM 78.1 °F - 57.0 °F 48% 30.09 in 10.0 mi SE 12.7 mph 19.6 mph N/A   Clear
11:53 AM 80.1 °F 80.4 °F 57.0 °F 45% 30.06 in 10.0 mi SE 6.9 mph 20.7 mph N/A   Clear
12:53 PM 80.1 °F 80.2 °F 55.9 °F 43% 30.04 in 10.0 mi SE 9.2 mph - N/A   Partly Cloudy
1:53 PM 81.0 °F 80.7 °F 55.0 °F 41% 30.01 in 10.0 mi SE 8.1 mph - N/A   Partly Cloudy
2:53 PM 81.0 °F 80.7 °F 55.0 °F 41% 30.01 in 10.0 mi SSE 9.2 mph - N/A   Partly Cloudy
3:53 PM 80.1 °F 80.2 °F 55.9 °F 43% 29.99 in 10.0 mi SSE 3.5 mph - N/A   Partly Cloudy
4:53 PM 80.1 °F 80.1 °F 55.0 °F 42% 29.98 in 10.0 mi Variable 3.5 mph - N/A   Scattered Clouds
5:53 PM 77.0 °F - 57.0 °F 50% 29.98 in 10.0 mi Calm Calm - N/A   Scattered Clouds
6:53 PM 75.0 °F - 57.9 °F 55% 29.99 in 10.0 mi Calm Calm - N/A   Scattered Clouds
7:53 PM 73.9 °F - 57.9 °F 57% 30.00 in 10.0 mi SE 4.6 mph - N/A   Scattered Clouds
8:53 PM 73.0 °F - 61.0 °F 66% 30.00 in 10.0 mi SE 6.9 mph - N/A   Mostly Cloudy
9:53 PM 71.1 °F - 61.0 °F 70% 29.99 in 10.0 mi Variable 6.9 mph - N/A   Clear
10:53 PM 70.0 °F - 63.0 °F 78% 29.99 in 10.0 mi SE 5.8 mph - N/A   Clear
11:53 PM 70.0 °F - 63.0 °F 78% 29.97 in 10.0 mi SE 9.2 mph 17.3 mph N/A   Clear